Weather in El Seibo

Dominican Republic     18°46′01″N   69°02′32″W
temp.,
°C
wind,
m/s
gust,
m/s
humid.,
%
clouds,
%
prec.,
mm/h
press.,
hPa
HPBL,
m
19 january, tue
tue1923:00+21ene389581 0.0 1018210
02:00+21ne389790 0.0 1018249
05:00+21ene389796 0.0 1017254
08:00+21ene399598 0.1 1019320
11:00+26ene5777100 0.1 10201047
14:00+26ne577699 0.5 10181020
17:00+24ne4781100 0.1 1016721
20:00+21nne3795100 0.1 1018215
20 january, wed
wed2023:00+21ne3895100 0.1 1019229
02:00+21ne3994100 0.1 1017277
05:00+21ne399586 0.0 1016365
08:00+22ne4109084 0.0 1018473
11:00+26ene687889 0.1 1018926
14:00+24ene478694 1.7 1016627
17:00+25ene4583100 0.8 1014686
20:00+21ene3493100 0.8 1016100
21 january, thu
thu2123:00+21nne239519 0.0 101669
02:00+21ne239642 0.1 1016102
05:00+20ne229634 0.1 101543
08:00+21nne129521 0.1 101675
11:00+26ene457419 0.1 1017985
14:00+27ene456717 0.1 10151001
17:00+25ene45760 0.0 1014718
20:00+21nne23930 0.0 101648
22 january, fri
fri2223:00+20nne23940 0.0 101680
02:00+20ne23960 0.1 101570
05:00+20ne24966 0.0 101599
08:00+21nne23953 0.0 1016100
11:00+26e45757 0.4 1018906
14:00+27e557121 0.6 10161092
17:00+25ene467911 0.1 1015670
20:00+21ne349424 0.1 101681
23 january, sat
sat2323:00+20ne23950 0.0 101765
02:00+20ne22950 0.0 101639
05:00+20ne22950 0.0 101630
08:00+21ne23932 0.0 101782
11:00+26ene347522 0.1 1018801
14:00+27ne557535 0.8 1016850
17:00+25ne468211 0.3 1015656
20:00+21ne34956 0.3 1016100